Hourly Data Report for August 27, 2021

TORONTO CITY
ONTARIO
Current Station Operator: ECCC - MSC

43°40'00.000" N
79°24'00.000" W
112.50 m
6158355
71508
XTO

Download Data

Hourly Data (August 2021)
Hourly Data Report for August 27, 2021
TIME
LST
Temp Definition
°C
Dew Point Definition
°C
Rel Hum Definition
%
Precip. Amount Definition
mm

Wind Dir Definition
10's deg

Wind Spd Definition
km/h
Visibility Definition
km
Stn Press Definition
kPa
Hmdx Definition


Wind Chill Definition


Weather Definition


00:00 24.4 17.5 66 0.0       100.63 30   LegendNANA
01:00 24.0 17.3 66 0.0       100.63 29   LegendNANA
02:00 23.8 16.3 63 0.0       100.61 29   LegendNANA
03:00 23.5 17.6 70 0.0       100.62 29   LegendNANA
04:00 22.8 18.0 74 0.0       100.63 29   LegendNANA
05:00 22.6 17.0 70 0.0       100.63 28   LegendNANA
06:00 22.1 15.1 65 0.0       100.67 26   LegendNANA
07:00 22.3 14.3 60 0.0       100.76 26   LegendNANA
08:00 22.6 13.5 57 0.0       100.81 26   LegendNANA
09:00 23.2 14.7 59 0.0       100.84 27   LegendNANA
10:00 23.6 14.6 57 0.0       100.89 27   LegendNANA
11:00 24.0 14.1 54 0.0       100.90 27   LegendNANA
12:00 24.1 13.8 52 0.0       100.91 27   LegendNANA
13:00 25.3 12.2 44 0.0       100.84 28   LegendNANA
14:00 26.2 13.4 45 0.0       100.78 29   LegendNANA
15:00 26.0 13.2 45 0.0       100.75 29   LegendNANA
16:00 25.0 15.4 55 0.0       100.75 29   LegendNANA
17:00 24.6 16.0 59 0.0       100.75 29   LegendNANA
18:00 24.3 16.4 61 0.0       100.76 29   LegendNANA
19:00 24.2 16.3 61 0.0       100.73 29   LegendNANA
20:00 23.6 17.8 70 0.0       100.81 29   LegendNANA
21:00 23.9 18.1 70 0.0       100.88 30   LegendNANA
22:00 23.9 17.7 68 0.0       100.87 30   LegendNANA
23:00 23.6 15.4 60 0.0       100.86 28   LegendNANA

Notes on Data Quality.

Legend

  • E = Estimated
  • M = Missing
  • NA = Not Available*
  • [empty] = Indicates an unobserved value
Date modified: